899  
SXUS52 KTAE 190705  
OSOTAE  
OSOTAE  
NORTH FLORIDA/SOUTH ALABAMA/SOUTHWEST GEORGIA WEATHER ROUNDUP  
NATIONAL WEATHER SERVICE TALLAHASSEE FLORIDA  
200 AM EST FRI JAN 19 2018  
 
NOTE: "FAIR" INDICATES FEW OR NO CLOUDS BELOW 12,000 FEET WITH NO  
SIGNIFICANT WEATHER AND/OR OBSTRUCTIONS TO VISIBILITY.  
 
!FLZ017-115-028-034-025-190800   
..NORTH FLORIDA
 
 
 
CITY SKY/WX TMP DP RH WIND PRES REMARKS  
TALLAHASSEE FOG 25 21 85 CALM 30.36F VSB 3/4  
APALACHICOLA FAIR 31 21 66 N6 30.37S WCI 25  
PERRY FAIR 27 22 81 CALM 30.37S  
CROSS CITY FAIR 23 21 91 CALM 30.41F  
JACKSONVILLE FAIR 30 24 78 CALM 30.34F  

 
 
!FLZ112-006-005-002-011-190800   
..FLORIDA PANHANDLE
 
 
 
CITY SKY/WX TMP DP RH WIND PRES REMARKS  
MARIANNA FAIR 26 19 74 CALM 30.37F  
BONIFAY NOT AVBL  
PANAMA CITY NW FAIR 26 21 81 CALM 30.36F  
TYNDALL AFB FAIR 36 18 48 NE3 30.37F  
TYND DRONE APT FAIR 31 21 66 NE7 30.37F WCI 24  
DE FUNIAK SPR FAIR 27 20 75 N5 30.37F WCI 22  
EGLIN AFB CLEAR 28 15 57 N3 30.38S  
DESTIN FAIR 35 21 56 N5 30.39F WCI 31  
HURLBURT NOT AVBL  
CRESTVIEW FAIR 21 18 88 CALM 30.40S  
PENSACOLA FAIR 29 18 63 N5 30.39F WCI 24  

 
 
!ALZ063-066-190800   
..SOUTH ALABAMA
 
 
 
CITY SKY/WX TMP DP RH WIND PRES REMARKS  
DOTHAN N/A 27 19 72 MISG 30.38F  
OZARK CAIRNS FAIR 25 17 72 NW6 30.36F WCI 18  
FT RUCKER HELI FAIR 22 19 89 CALM 30.36F  
RUCKER HELI 3 N/A 29 16 58 N6 30.35F WCI 23  
RUCKER HELI 2 FAIR 23 21 90 NW3 30.35F  
FLORALA APT FAIR 24 18 77 CALM 30.40S  
ANDALUSIA FAIR 26 20 77 CALM 30.37F  
TROY FAIR 22 19 89 CALM 30.37F  
EUFALA FAIR 24 20 84 CALM 30.34F  
MOBILE FAIR 25 18 74 CALM 30.40F  

 
 
!GAZ120>161-190800   
..SOUTHWEST AND SOUTH CENTRAL GEORGIA
 
 
 
CITY SKY/WX TMP DP RH WIND PRES REMARKS  
THOMASVILLE FAIR 30 23 74 CALM 30.37S  
BAINBRIDGE N/A 28 27 93 CALM 30.37F  
MOODY AFB FAIR 27 20 73 CALM 30.34S  
VALDOSTA FAIR 23 21 92 CALM 30.35F  
MOULTRIE FAIR 30 27 86 CALM 30.36S  
BLAKELY FAIR 28 23 80 CALM 30.37F  
ALBANY FAIR 26 19 74 CALM 30.38S  
TIFTON FAIR 31 21 67 CALM 30.34S  
FITZGERALD FAIR 32 20 62 NW3 30.36S  
CORDELE FAIR 30 24 76 CALM 30.36F  
AMERICUS FAIR 28 16 59 CALM 30.35F  
HOMERVILLE FAIR 27 27 100 CALM 30.35S  

 
 
!GMZ750-755-770-775-190800   
..COASTAL AND BUOY OBS
 
 
 
STATION/POSITION TIME TEMP WIND PRES VSBY WAVE  
AIR SEA DIR/SP/G HT/PER  
(UTC) (F) (DEG/KT/KT) (MB) (MI) (FT/S)  
KEATON BEACH 0700 32 60/ 4/ 5 1027.5F  
CEDAR KEY 0600 40 360/ 4/ 4 1028.3F  
C TOWER 0700 46 10/ 7/ 9 1028.6S  
APALACHICOLA BUO NOT AVBL  
PANAMA CITY BUOY 0550 54 69 20/ 6/ 10 1028.2 2/ 4  
MOBILE BUOY 0650 52 69 30/ 6/ 10 1028.6F 2/ 5  
ORANGE BCH AL BU NOT AVBL  

 
 
 
CLICK HERE TO GO TO PREVIOUS BULLETINS.

The Nexlab FL Page
The Nexlab GA Page
The Nexlab AL Page Main Text Page